<?xml version="1.0" encoding="UTF-8" standalone="no" ?>
<gpx xmlns="http://www.topografix.com/GPX/1/1" xmlns:xsi="http://www.w3.org/2001/XMLSchema-instance" xsi:schemaLocation="http://www.topografix.com/GPX/1/1 http://www.topografix.com/GPX/1/1/gpx.xsd" version="1.1" creator="VisuGPX - https://www.visugpx.com">
  <metadata>
    <name>TG19 18 KMS</name>
    <desc><![CDATA[                                                   ]]></desc>
  </metadata>
  <trk>
    <name><![CDATA[TG19 18 KMS_1]]></name>
    <trkseg>
      <trkpt lat="46.72824" lon="-0.1653">
        <ele>124.1</ele>
        <time>2019-02-03T20:45:30.000Z</time>
      </trkpt>
      <trkpt lat="46.72824" lon="-0.16529">
        <ele>124</ele>
        <time>2019-02-03T20:45:30.016Z</time>
      </trkpt>
      <trkpt lat="46.72881" lon="-0.16518">
        <ele>123.2</ele>
        <time>2019-02-03T20:45:31.168Z</time>
      </trkpt>
      <trkpt lat="46.72895" lon="-0.16519">
        <ele>123.2</ele>
        <time>2019-02-03T20:45:31.449Z</time>
      </trkpt>
      <trkpt lat="46.7292" lon="-0.16529">
        <ele>123.1</ele>
        <time>2019-02-03T20:45:31.968Z</time>
      </trkpt>
      <trkpt lat="46.72957" lon="-0.16548">
        <ele>123.7</ele>
        <time>2019-02-03T20:45:32.754Z</time>
      </trkpt>
      <trkpt lat="46.72983" lon="-0.16565">
        <ele>123</ele>
        <time>2019-02-03T20:45:33.325Z</time>
      </trkpt>
      <trkpt lat="46.72996" lon="-0.16577">
        <ele>122.9</ele>
        <time>2019-02-03T20:45:33.633Z</time>
      </trkpt>
      <trkpt lat="46.73" lon="-0.16581">
        <ele>122.9</ele>
        <time>2019-02-03T20:45:33.730Z</time>
      </trkpt>
      <trkpt lat="46.73015" lon="-0.16587">
        <ele>122.6</ele>
        <time>2019-02-03T20:45:34.042Z</time>
      </trkpt>
      <trkpt lat="46.73018" lon="-0.16584">
        <ele>122.4</ele>
        <time>2019-02-03T20:45:34.115Z</time>
      </trkpt>
      <trkpt lat="46.73026" lon="-0.16575">
        <ele>122</ele>
        <time>2019-02-03T20:45:34.317Z</time>
      </trkpt>
      <trkpt lat="46.73043" lon="-0.16559">
        <ele>121.6</ele>
        <time>2019-02-03T20:45:34.722Z</time>
      </trkpt>
      <trkpt lat="46.73072" lon="-0.16526">
        <ele>120.5</ele>
        <time>2019-02-03T20:45:35.459Z</time>
      </trkpt>
      <trkpt lat="46.73097" lon="-0.1648">
        <ele>117.3</ele>
        <time>2019-02-03T20:45:36.265Z</time>
      </trkpt>
      <trkpt lat="46.73129" lon="-0.1641">
        <ele>113.8</ele>
        <time>2019-02-03T20:45:37.421Z</time>
      </trkpt>
      <trkpt lat="46.73152" lon="-0.16361">
        <ele>112.5</ele>
        <time>2019-02-03T20:45:38.237Z</time>
      </trkpt>
      <trkpt lat="46.73161" lon="-0.16346">
        <ele>112.3</ele>
        <time>2019-02-03T20:45:38.511Z</time>
      </trkpt>
      <trkpt lat="46.73177" lon="-0.16326">
        <ele>111.6</ele>
        <time>2019-02-03T20:45:38.933Z</time>
      </trkpt>
      <trkpt lat="46.73193" lon="-0.16311">
        <ele>111.2</ele>
        <time>2019-02-03T20:45:39.314Z</time>
      </trkpt>
      <trkpt lat="46.73204" lon="-0.16303">
        <ele>110.9</ele>
        <time>2019-02-03T20:45:39.560Z</time>
      </trkpt>
      <trkpt lat="46.73239" lon="-0.16277">
        <ele>110</ele>
        <time>2019-02-03T20:45:40.347Z</time>
      </trkpt>
      <trkpt lat="46.73255" lon="-0.16262">
        <ele>109.5</ele>
        <time>2019-02-03T20:45:40.728Z</time>
      </trkpt>
      <trkpt lat="46.73269" lon="-0.16244">
        <ele>109.5</ele>
        <time>2019-02-03T20:45:41.102Z</time>
      </trkpt>
      <trkpt lat="46.73305" lon="-0.16186">
        <ele>108.7</ele>
        <time>2019-02-03T20:45:42.177Z</time>
      </trkpt>
      <trkpt lat="46.73319" lon="-0.16166">
        <ele>108</ele>
        <time>2019-02-03T20:45:42.570Z</time>
      </trkpt>
      <trkpt lat="46.73334" lon="-0.1615">
        <ele>108</ele>
        <time>2019-02-03T20:45:42.942Z</time>
      </trkpt>
      <trkpt lat="46.73356" lon="-0.16136">
        <ele>107.2</ele>
        <time>2019-02-03T20:45:43.423Z</time>
      </trkpt>
      <trkpt lat="46.7338" lon="-0.16122">
        <ele>105.5</ele>
        <time>2019-02-03T20:45:43.941Z</time>
      </trkpt>
      <trkpt lat="46.73415" lon="-0.16108">
        <ele>103</ele>
        <time>2019-02-03T20:45:44.668Z</time>
      </trkpt>
      <trkpt lat="46.73457" lon="-0.16091">
        <ele>101.6</ele>
        <time>2019-02-03T20:45:45.541Z</time>
      </trkpt>
      <trkpt lat="46.73497" lon="-0.16077">
        <ele>99.9</ele>
        <time>2019-02-03T20:45:46.365Z</time>
      </trkpt>
      <trkpt lat="46.73516" lon="-0.16073">
        <ele>99.4</ele>
        <time>2019-02-03T20:45:46.750Z</time>
      </trkpt>
      <trkpt lat="46.73532" lon="-0.16073">
        <ele>99</ele>
        <time>2019-02-03T20:45:47.071Z</time>
      </trkpt>
      <trkpt lat="46.73548" lon="-0.16076">
        <ele>98.2</ele>
        <time>2019-02-03T20:45:47.394Z</time>
      </trkpt>
      <trkpt lat="46.73566" lon="-0.16084">
        <ele>97.7</ele>
        <time>2019-02-03T20:45:47.771Z</time>
      </trkpt>
      <trkpt lat="46.73601" lon="-0.16108">
        <ele>97.6</ele>
        <time>2019-02-03T20:45:48.546Z</time>
      </trkpt>
      <trkpt lat="46.73607" lon="-0.16084">
        <ele>96.2</ele>
        <time>2019-02-03T20:45:48.897Z</time>
      </trkpt>
      <trkpt lat="46.7361" lon="-0.16057">
        <ele>95.1</ele>
        <time>2019-02-03T20:45:49.273Z</time>
      </trkpt>
      <trkpt lat="46.73616" lon="-0.16024">
        <ele>93.9</ele>
        <time>2019-02-03T20:45:49.742Z</time>
      </trkpt>
      <trkpt lat="46.7362" lon="-0.16003">
        <ele>93.4</ele>
        <time>2019-02-03T20:45:50.040Z</time>
      </trkpt>
      <trkpt lat="46.7362" lon="-0.16001">
        <ele>93.3</ele>
        <time>2019-02-03T20:45:50.068Z</time>
      </trkpt>
      <trkpt lat="46.73624" lon="-0.15974">
        <ele>94</ele>
        <time>2019-02-03T20:45:50.447Z</time>
      </trkpt>
      <trkpt lat="46.73625" lon="-0.15952">
        <ele>93.3</ele>
        <time>2019-02-03T20:45:50.750Z</time>
      </trkpt>
      <trkpt lat="46.73622" lon="-0.15915">
        <ele>92.7</ele>
        <time>2019-02-03T20:45:51.262Z</time>
      </trkpt>
      <trkpt lat="46.73591" lon="-0.15839">
        <ele>92.9</ele>
        <time>2019-02-03T20:45:52.477Z</time>
      </trkpt>
      <trkpt lat="46.73578" lon="-0.15787">
        <ele>93.9</ele>
        <time>2019-02-03T20:45:53.237Z</time>
      </trkpt>
      <trkpt lat="46.7357" lon="-0.15712">
        <ele>94.4</ele>
        <time>2019-02-03T20:45:54.279Z</time>
      </trkpt>
      <trkpt lat="46.73563" lon="-0.15675">
        <ele>95.7</ele>
        <time>2019-02-03T20:45:54.806Z</time>
      </trkpt>
      <trkpt lat="46.73561" lon="-0.15638">
        <ele>96.2</ele>
        <time>2019-02-03T20:45:55.316Z</time>
      </trkpt>
      <trkpt lat="46.73562" lon="-0.15589">
        <ele>98.6</ele>
        <time>2019-02-03T20:45:55.989Z</time>
      </trkpt>
      <trkpt lat="46.73573" lon="-0.15549">
        <ele>100.1</ele>
        <time>2019-02-03T20:45:56.581Z</time>
      </trkpt>
      <trkpt lat="46.73581" lon="-0.15507">
        <ele>104.1</ele>
        <time>2019-02-03T20:45:57.180Z</time>
      </trkpt>
      <trkpt lat="46.73582" lon="-0.15483">
        <ele>106.1</ele>
        <time>2019-02-03T20:45:57.510Z</time>
      </trkpt>
      <trkpt lat="46.73582" lon="-0.15431">
        <ele>109.9</ele>
        <time>2019-02-03T20:45:58.224Z</time>
      </trkpt>
      <trkpt lat="46.73582" lon="-0.15387">
        <ele>112.9</ele>
        <time>2019-02-03T20:45:58.828Z</time>
      </trkpt>
      <trkpt lat="46.73584" lon="-0.15372">
        <ele>113.7</ele>
        <time>2019-02-03T20:45:59.038Z</time>
      </trkpt>
      <trkpt lat="46.73588" lon="-0.15364">
        <ele>114.2</ele>
        <time>2019-02-03T20:45:59.174Z</time>
      </trkpt>
      <trkpt lat="46.73603" lon="-0.15349">
        <ele>115.5</ele>
        <time>2019-02-03T20:45:59.538Z</time>
      </trkpt>
      <trkpt lat="46.73643" lon="-0.15314">
        <ele>119</ele>
        <time>2019-02-03T20:46:00.473Z</time>
      </trkpt>
      <trkpt lat="46.7365" lon="-0.15308">
        <ele>119.7</ele>
        <time>2019-02-03T20:46:00.636Z</time>
      </trkpt>
      <trkpt lat="46.73659" lon="-0.15306">
        <ele>120.4</ele>
        <time>2019-02-03T20:46:00.818Z</time>
      </trkpt>
      <trkpt lat="46.73715" lon="-0.15301">
        <ele>123.1</ele>
        <time>2019-02-03T20:46:01.942Z</time>
      </trkpt>
      <trkpt lat="46.73737" lon="-0.15297">
        <ele>124.9</ele>
        <time>2019-02-03T20:46:02.386Z</time>
      </trkpt>
      <trkpt lat="46.73827" lon="-0.15254">
        <ele>130.7</ele>
        <time>2019-02-03T20:46:04.284Z</time>
      </trkpt>
      <trkpt lat="46.73865" lon="-0.15228">
        <ele>134.2</ele>
        <time>2019-02-03T20:46:05.125Z</time>
      </trkpt>
      <trkpt lat="46.7387" lon="-0.15221">
        <ele>134.5</ele>
        <time>2019-02-03T20:46:05.264Z</time>
      </trkpt>
      <trkpt lat="46.73872" lon="-0.15217">
        <ele>135.4</ele>
        <time>2019-02-03T20:46:05.332Z</time>
      </trkpt>
      <trkpt lat="46.73877" lon="-0.15219">
        <ele>135.2</ele>
        <time>2019-02-03T20:46:05.436Z</time>
      </trkpt>
      <trkpt lat="46.73904" lon="-0.15216">
        <ele>139</ele>
        <time>2019-02-03T20:46:05.979Z</time>
      </trkpt>
      <trkpt lat="46.73943" lon="-0.15205">
        <ele>145.1</ele>
        <time>2019-02-03T20:46:06.775Z</time>
      </trkpt>
      <trkpt lat="46.7398" lon="-0.15192">
        <ele>148.5</ele>
        <time>2019-02-03T20:46:07.538Z</time>
      </trkpt>
      <trkpt lat="46.73998" lon="-0.15175">
        <ele>150.3</ele>
        <time>2019-02-03T20:46:07.968Z</time>
      </trkpt>
      <trkpt lat="46.74027" lon="-0.15152">
        <ele>152</ele>
        <time>2019-02-03T20:46:08.629Z</time>
      </trkpt>
      <trkpt lat="46.74052" lon="-0.15136">
        <ele>153.2</ele>
        <time>2019-02-03T20:46:09.176Z</time>
      </trkpt>
      <trkpt lat="46.74066" lon="-0.15123">
        <ele>154.3</ele>
        <time>2019-02-03T20:46:09.509Z</time>
      </trkpt>
      <trkpt lat="46.74068" lon="-0.15124">
        <ele>154.3</ele>
        <time>2019-02-03T20:46:09.551Z</time>
      </trkpt>
      <trkpt lat="46.7411" lon="-0.15128">
        <ele>153.8</ele>
        <time>2019-02-03T20:46:10.394Z</time>
      </trkpt>
      <trkpt lat="46.74143" lon="-0.1514">
        <ele>152.8</ele>
        <time>2019-02-03T20:46:11.076Z</time>
      </trkpt>
      <trkpt lat="46.74154" lon="-0.15139">
        <ele>152.5</ele>
        <time>2019-02-03T20:46:11.297Z</time>
      </trkpt>
      <trkpt lat="46.74177" lon="-0.15121">
        <ele>153.3</ele>
        <time>2019-02-03T20:46:11.820Z</time>
      </trkpt>
      <trkpt lat="46.74195" lon="-0.15113">
        <ele>153.8</ele>
        <time>2019-02-03T20:46:12.197Z</time>
      </trkpt>
      <trkpt lat="46.74218" lon="-0.15107">
        <ele>153.4</ele>
        <time>2019-02-03T20:46:12.665Z</time>
      </trkpt>
      <trkpt lat="46.74243" lon="-0.15101">
        <ele>153.3</ele>
        <time>2019-02-03T20:46:13.173Z</time>
      </trkpt>
      <trkpt lat="46.74272" lon="-0.15096">
        <ele>153.2</ele>
        <time>2019-02-03T20:46:13.758Z</time>
      </trkpt>
      <trkpt lat="46.74287" lon="-0.15096">
        <ele>152.9</ele>
        <time>2019-02-03T20:46:14.059Z</time>
      </trkpt>
      <trkpt lat="46.74278" lon="-0.15072">
        <ele>154.8</ele>
        <time>2019-02-03T20:46:14.434Z</time>
      </trkpt>
      <trkpt lat="46.74278" lon="-0.15071">
        <ele>154.9</ele>
        <time>2019-02-03T20:46:14.447Z</time>
      </trkpt>
      <trkpt lat="46.74287" lon="-0.15096">
        <ele>152.9</ele>
        <time>2019-02-03T20:46:14.835Z</time>
      </trkpt>
      <trkpt lat="46.74307" lon="-0.15102">
        <ele>152</ele>
        <time>2019-02-03T20:46:15.244Z</time>
      </trkpt>
      <trkpt lat="46.74337" lon="-0.15111">
        <ele>151</ele>
        <time>2019-02-03T20:46:15.858Z</time>
      </trkpt>
      <trkpt lat="46.74356" lon="-0.15114">
        <ele>150.8</ele>
        <time>2019-02-03T20:46:16.241Z</time>
      </trkpt>
      <trkpt lat="46.74411" lon="-0.15111">
        <ele>149.2</ele>
        <time>2019-02-03T20:46:17.344Z</time>
      </trkpt>
      <trkpt lat="46.74431" lon="-0.15115">
        <ele>149.2</ele>
        <time>2019-02-03T20:46:17.749Z</time>
      </trkpt>
      <trkpt lat="46.7445" lon="-0.15125">
        <ele>149.4</ele>
        <time>2019-02-03T20:46:18.154Z</time>
      </trkpt>
      <trkpt lat="46.74478" lon="-0.15145">
        <ele>150.8</ele>
        <time>2019-02-03T20:46:18.779Z</time>
      </trkpt>
      <trkpt lat="46.74491" lon="-0.15157">
        <ele>152.2</ele>
        <time>2019-02-03T20:46:19.087Z</time>
      </trkpt>
      <trkpt lat="46.74509" lon="-0.15173">
        <ele>154</ele>
        <time>2019-02-03T20:46:19.509Z</time>
      </trkpt>
      <trkpt lat="46.74526" lon="-0.1519">
        <ele>155.8</ele>
        <time>2019-02-03T20:46:19.922Z</time>
      </trkpt>
      <trkpt lat="46.74571" lon="-0.15253">
        <ele>159.6</ele>
        <time>2019-02-03T20:46:21.172Z</time>
      </trkpt>
      <trkpt lat="46.74576" lon="-0.15268">
        <ele>159.7</ele>
        <time>2019-02-03T20:46:21.401Z</time>
      </trkpt>
      <trkpt lat="46.7458" lon="-0.15294">
        <ele>159.8</ele>
        <time>2019-02-03T20:46:21.767Z</time>
      </trkpt>
      <trkpt lat="46.74588" lon="-0.15293">
        <ele>160.2</ele>
        <time>2019-02-03T20:46:21.928Z</time>
      </trkpt>
      <trkpt lat="46.74593" lon="-0.15288">
        <ele>160.3</ele>
        <time>2019-02-03T20:46:22.049Z</time>
      </trkpt>
      <trkpt lat="46.74608" lon="-0.15262">
        <ele>160.4</ele>
        <time>2019-02-03T20:46:22.516Z</time>
      </trkpt>
      <trkpt lat="46.74617" lon="-0.15246">
        <ele>160.3</ele>
        <time>2019-02-03T20:46:22.800Z</time>
      </trkpt>
      <trkpt lat="46.74621" lon="-0.15245">
        <ele>160.5</ele>
        <time>2019-02-03T20:46:22.881Z</time>
      </trkpt>
      <trkpt lat="46.74626" lon="-0.15244">
        <ele>160.6</ele>
        <time>2019-02-03T20:46:22.982Z</time>
      </trkpt>
      <trkpt lat="46.74631" lon="-0.15248">
        <ele>160.7</ele>
        <time>2019-02-03T20:46:23.096Z</time>
      </trkpt>
      <trkpt lat="46.74697" lon="-0.15319">
        <ele>161</ele>
        <time>2019-02-03T20:46:24.739Z</time>
      </trkpt>
      <trkpt lat="46.74763" lon="-0.1539">
        <ele>160.5</ele>
        <time>2019-02-03T20:46:26.382Z</time>
      </trkpt>
      <trkpt lat="46.74763" lon="-0.1539">
        <ele>160.5</ele>
        <time>2019-02-03T20:46:26.391Z</time>
      </trkpt>
      <trkpt lat="46.74778" lon="-0.15409">
        <ele>160</ele>
        <time>2019-02-03T20:46:26.780Z</time>
      </trkpt>
      <trkpt lat="46.74788" lon="-0.15426">
        <ele>160</ele>
        <time>2019-02-03T20:46:27.088Z</time>
      </trkpt>
      <trkpt lat="46.74839" lon="-0.15551">
        <ele>155.1</ele>
        <time>2019-02-03T20:46:29.086Z</time>
      </trkpt>
      <trkpt lat="46.74874" lon="-0.15644">
        <ele>148.3</ele>
        <time>2019-02-03T20:46:30.543Z</time>
      </trkpt>
      <trkpt lat="46.74894" lon="-0.15664">
        <ele>147.8</ele>
        <time>2019-02-03T20:46:31.029Z</time>
      </trkpt>
      <trkpt lat="46.749" lon="-0.15674">
        <ele>148.7</ele>
        <time>2019-02-03T20:46:31.212Z</time>
      </trkpt>
      <trkpt lat="46.74901" lon="-0.15682">
        <ele>149</ele>
        <time>2019-02-03T20:46:31.324Z</time>
      </trkpt>
      <trkpt lat="46.74902" lon="-0.15704">
        <ele>149.7</ele>
        <time>2019-02-03T20:46:31.627Z</time>
      </trkpt>
      <trkpt lat="46.749" lon="-0.15765">
        <ele>151.3</ele>
        <time>2019-02-03T20:46:32.466Z</time>
      </trkpt>
      <trkpt lat="46.74899" lon="-0.15785">
        <ele>151.9</ele>
        <time>2019-02-03T20:46:32.741Z</time>
      </trkpt>
      <trkpt lat="46.74912" lon="-0.15795">
        <ele>154</ele>
        <time>2019-02-03T20:46:33.030Z</time>
      </trkpt>
      <trkpt lat="46.74912" lon="-0.15795">
        <ele>154</ele>
        <time>2019-02-03T20:46:33.032Z</time>
      </trkpt>
      <trkpt lat="46.74954" lon="-0.15819">
        <ele>158</ele>
        <time>2019-02-03T20:46:33.941Z</time>
      </trkpt>
      <trkpt lat="46.74956" lon="-0.15836">
        <ele>158.5</ele>
        <time>2019-02-03T20:46:34.188Z</time>
      </trkpt>
      <trkpt lat="46.75023" lon="-0.15895">
        <ele>160.6</ele>
        <time>2019-02-03T20:46:35.748Z</time>
      </trkpt>
      <trkpt lat="46.75117" lon="-0.16012">
        <ele>160</ele>
        <time>2019-02-03T20:46:38.217Z</time>
      </trkpt>
      <trkpt lat="46.75165" lon="-0.16059">
        <ele>160</ele>
        <time>2019-02-03T20:46:39.381Z</time>
      </trkpt>
      <trkpt lat="46.75199" lon="-0.16042">
        <ele>159.9</ele>
        <time>2019-02-03T20:46:40.106Z</time>
      </trkpt>
      <trkpt lat="46.75214" lon="-0.16029">
        <ele>159.3</ele>
        <time>2019-02-03T20:46:40.450Z</time>
      </trkpt>
      <trkpt lat="46.75221" lon="-0.16006">
        <ele>159</ele>
        <time>2019-02-03T20:46:40.801Z</time>
      </trkpt>
      <trkpt lat="46.75244" lon="-0.16124">
        <ele>159.2</ele>
        <time>2019-02-03T20:46:42.486Z</time>
      </trkpt>
      <trkpt lat="46.75247" lon="-0.16154">
        <ele>159</ele>
        <time>2019-02-03T20:46:42.907Z</time>
      </trkpt>
      <trkpt lat="46.75247" lon="-0.16154">
        <ele>159</ele>
        <time>2019-02-03T20:46:42.907Z</time>
      </trkpt>
      <trkpt lat="46.75247" lon="-0.16154">
        <ele>159</ele>
        <time>2019-02-03T20:46:42.907Z</time>
      </trkpt>
      <trkpt lat="46.75252" lon="-0.1621">
        <ele>157.5</ele>
        <time>2019-02-03T20:46:43.674Z</time>
      </trkpt>
      <trkpt lat="46.75249" lon="-0.16241">
        <ele>156.3</ele>
        <time>2019-02-03T20:46:44.115Z</time>
      </trkpt>
      <trkpt lat="46.75225" lon="-0.1625">
        <ele>156</ele>
        <time>2019-02-03T20:46:44.604Z</time>
      </trkpt>
      <trkpt lat="46.75225" lon="-0.1625">
        <ele>156</ele>
        <time>2019-02-03T20:46:44.604Z</time>
      </trkpt>
      <trkpt lat="46.75245" lon="-0.16328">
        <ele>152.4</ele>
        <time>2019-02-03T20:46:45.747Z</time>
      </trkpt>
      <trkpt lat="46.75356" lon="-0.16396">
        <ele>149.8</ele>
        <time>2019-02-03T20:46:48.148Z</time>
      </trkpt>
      <trkpt lat="46.75358" lon="-0.16401">
        <ele>149.6</ele>
        <time>2019-02-03T20:46:48.232Z</time>
      </trkpt>
      <trkpt lat="46.75358" lon="-0.16401">
        <ele>149.5</ele>
        <time>2019-02-03T20:46:48.235Z</time>
      </trkpt>
      <trkpt lat="46.75359" lon="-0.16401">
        <ele>149.6</ele>
        <time>2019-02-03T20:46:48.261Z</time>
      </trkpt>
      <trkpt lat="46.75359" lon="-0.16401">
        <ele>149.6</ele>
        <time>2019-02-03T20:46:48.266Z</time>
      </trkpt>
      <trkpt lat="46.7536" lon="-0.1641">
        <ele>149.2</ele>
        <time>2019-02-03T20:46:48.391Z</time>
      </trkpt>
      <trkpt lat="46.75362" lon="-0.16415">
        <ele>149</ele>
        <time>2019-02-03T20:46:48.470Z</time>
      </trkpt>
      <trkpt lat="46.75371" lon="-0.16418">
        <ele>148.6</ele>
        <time>2019-02-03T20:46:48.655Z</time>
      </trkpt>
      <trkpt lat="46.75393" lon="-0.16435">
        <ele>147.2</ele>
        <time>2019-02-03T20:46:49.154Z</time>
      </trkpt>
      <trkpt lat="46.75419" lon="-0.16448">
        <ele>145.8</ele>
        <time>2019-02-03T20:46:49.705Z</time>
      </trkpt>
      <trkpt lat="46.7545" lon="-0.16455">
        <ele>144.3</ele>
        <time>2019-02-03T20:46:50.334Z</time>
      </trkpt>
      <trkpt lat="46.75505" lon="-0.16479">
        <ele>140.4</ele>
        <time>2019-02-03T20:46:51.484Z</time>
      </trkpt>
      <trkpt lat="46.75524" lon="-0.16455">
        <ele>140.4</ele>
        <time>2019-02-03T20:46:51.988Z</time>
      </trkpt>
      <trkpt lat="46.75543" lon="-0.16437">
        <ele>140.3</ele>
        <time>2019-02-03T20:46:52.442Z</time>
      </trkpt>
      <trkpt lat="46.75576" lon="-0.1641">
        <ele>139.8</ele>
        <time>2019-02-03T20:46:53.200Z</time>
      </trkpt>
      <trkpt lat="46.75584" lon="-0.16426">
        <ele>138.6</ele>
        <time>2019-02-03T20:46:53.472Z</time>
      </trkpt>
      <trkpt lat="46.75603" lon="-0.16457">
        <ele>137.2</ele>
        <time>2019-02-03T20:46:54.043Z</time>
      </trkpt>
      <trkpt lat="46.7564" lon="-0.16517">
        <ele>136.5</ele>
        <time>2019-02-03T20:46:55.151Z</time>
      </trkpt>
      <trkpt lat="46.75644" lon="-0.16527">
        <ele>136.8</ele>
        <time>2019-02-03T20:46:55.310Z</time>
      </trkpt>
      <trkpt lat="46.7565" lon="-0.16524">
        <ele>137.6</ele>
        <time>2019-02-03T20:46:55.437Z</time>
      </trkpt>
      <trkpt lat="46.75652" lon="-0.16515">
        <ele>137.9</ele>
        <time>2019-02-03T20:46:55.567Z</time>
      </trkpt>
      <trkpt lat="46.75656" lon="-0.16511">
        <ele>138.3</ele>
        <time>2019-02-03T20:46:55.664Z</time>
      </trkpt>
      <trkpt lat="46.75665" lon="-0.16508">
        <ele>139.1</ele>
        <time>2019-02-03T20:46:55.849Z</time>
      </trkpt>
      <trkpt lat="46.75681" lon="-0.1651">
        <ele>141.2</ele>
        <time>2019-02-03T20:46:56.171Z</time>
      </trkpt>
      <trkpt lat="46.75699" lon="-0.16517">
        <ele>143.5</ele>
        <time>2019-02-03T20:46:56.544Z</time>
      </trkpt>
      <trkpt lat="46.75722" lon="-0.16538">
        <ele>146</ele>
        <time>2019-02-03T20:46:57.088Z</time>
      </trkpt>
      <trkpt lat="46.75729" lon="-0.16545">
        <ele>146.5</ele>
        <time>2019-02-03T20:46:57.258Z</time>
      </trkpt>
      <trkpt lat="46.75744" lon="-0.16553">
        <ele>147.6</ele>
        <time>2019-02-03T20:46:57.578Z</time>
      </trkpt>
      <trkpt lat="46.75749" lon="-0.16558">
        <ele>147.9</ele>
        <time>2019-02-03T20:46:57.699Z</time>
      </trkpt>
      <trkpt lat="46.7575" lon="-0.16564">
        <ele>148</ele>
        <time>2019-02-03T20:46:57.784Z</time>
      </trkpt>
      <trkpt lat="46.7575" lon="-0.16586">
        <ele>148</ele>
        <time>2019-02-03T20:46:58.086Z</time>
      </trkpt>
      <trkpt lat="46.75772" lon="-0.16589">
        <ele>148.8</ele>
        <time>2019-02-03T20:46:58.529Z</time>
      </trkpt>
      <trkpt lat="46.75787" lon="-0.16589">
        <ele>149.7</ele>
        <time>2019-02-03T20:46:58.830Z</time>
      </trkpt>
      <trkpt lat="46.75794" lon="-0.16592">
        <ele>150.2</ele>
        <time>2019-02-03T20:46:58.976Z</time>
      </trkpt>
      <trkpt lat="46.75802" lon="-0.16598">
        <ele>150.7</ele>
        <time>2019-02-03T20:46:59.156Z</time>
      </trkpt>
      <trkpt lat="46.75809" lon="-0.16605">
        <ele>151.1</ele>
        <time>2019-02-03T20:46:59.326Z</time>
      </trkpt>
      <trkpt lat="46.7582" lon="-0.1661">
        <ele>151.5</ele>
        <time>2019-02-03T20:46:59.557Z</time>
      </trkpt>
      <trkpt lat="46.75849" lon="-0.1662">
        <ele>152.2</ele>
        <time>2019-02-03T20:47:00.154Z</time>
      </trkpt>
      <trkpt lat="46.75874" lon="-0.16627">
        <ele>152.4</ele>
        <time>2019-02-03T20:47:00.664Z</time>
      </trkpt>
      <trkpt lat="46.75888" lon="-0.16629">
        <ele>152.4</ele>
        <time>2019-02-03T20:47:00.946Z</time>
      </trkpt>
      <trkpt lat="46.75911" lon="-0.16628">
        <ele>152.4</ele>
        <time>2019-02-03T20:47:01.407Z</time>
      </trkpt>
      <trkpt lat="46.75914" lon="-0.16634">
        <ele>152.2</ele>
        <time>2019-02-03T20:47:01.507Z</time>
      </trkpt>
      <trkpt lat="46.75914" lon="-0.16635">
        <ele>152.1</ele>
        <time>2019-02-03T20:47:01.521Z</time>
      </trkpt>
      <trkpt lat="46.75915" lon="-0.16634">
        <ele>152.2</ele>
        <time>2019-02-03T20:47:01.536Z</time>
      </trkpt>
      <trkpt lat="46.75915" lon="-0.16634">
        <ele>152.2</ele>
        <time>2019-02-03T20:47:01.539Z</time>
      </trkpt>
      <trkpt lat="46.75928" lon="-0.16656">
        <ele>152</ele>
        <time>2019-02-03T20:47:01.942Z</time>
      </trkpt>
      <trkpt lat="46.75987" lon="-0.16742">
        <ele>146.8</ele>
        <time>2019-02-03T20:47:03.613Z</time>
      </trkpt>
      <trkpt lat="46.76006" lon="-0.16774">
        <ele>144</ele>
        <time>2019-02-03T20:47:04.194Z</time>
      </trkpt>
      <trkpt lat="46.7603" lon="-0.16807">
        <ele>140.6</ele>
        <time>2019-02-03T20:47:04.855Z</time>
      </trkpt>
      <trkpt lat="46.7604" lon="-0.16822">
        <ele>138.3</ele>
        <time>2019-02-03T20:47:05.142Z</time>
      </trkpt>
      <trkpt lat="46.76048" lon="-0.16842">
        <ele>136.6</ele>
        <time>2019-02-03T20:47:05.460Z</time>
      </trkpt>
      <trkpt lat="46.76064" lon="-0.1688">
        <ele>134.3</ele>
        <time>2019-02-03T20:47:06.072Z</time>
      </trkpt>
      <trkpt lat="46.76079" lon="-0.16909">
        <ele>131.7</ele>
        <time>2019-02-03T20:47:06.571Z</time>
      </trkpt>
      <trkpt lat="46.7609" lon="-0.16924">
        <ele>130.3</ele>
        <time>2019-02-03T20:47:06.873Z</time>
      </trkpt>
      <trkpt lat="46.76096" lon="-0.16933">
        <ele>129.6</ele>
        <time>2019-02-03T20:47:07.046Z</time>
      </trkpt>
      <trkpt lat="46.76108" lon="-0.16949">
        <ele>128.2</ele>
        <time>2019-02-03T20:47:07.371Z</time>
      </trkpt>
      <trkpt lat="46.76153" lon="-0.17004">
        <ele>122.4</ele>
        <time>2019-02-03T20:47:08.547Z</time>
      </trkpt>
      <trkpt lat="46.76188" lon="-0.17065">
        <ele>117.6</ele>
        <time>2019-02-03T20:47:09.639Z</time>
      </trkpt>
      <trkpt lat="46.76211" lon="-0.17113">
        <ele>114.1</ele>
        <time>2019-02-03T20:47:10.443Z</time>
      </trkpt>
      <trkpt lat="46.76184" lon="-0.17161">
        <ele>113.7</ele>
        <time>2019-02-03T20:47:11.296Z</time>
      </trkpt>
      <trkpt lat="46.76186" lon="-0.17163">
        <ele>113.5</ele>
        <time>2019-02-03T20:47:11.345Z</time>
      </trkpt>
      <trkpt lat="46.76208" lon="-0.17188">
        <ele>111.7</ele>
        <time>2019-02-03T20:47:11.904Z</time>
      </trkpt>
      <trkpt lat="46.76217" lon="-0.17201">
        <ele>111</ele>
        <time>2019-02-03T20:47:12.158Z</time>
      </trkpt>
      <trkpt lat="46.76236" lon="-0.17226">
        <ele>109.3</ele>
        <time>2019-02-03T20:47:12.671Z</time>
      </trkpt>
      <trkpt lat="46.76251" lon="-0.1724">
        <ele>107.6</ele>
        <time>2019-02-03T20:47:13.028Z</time>
      </trkpt>
      <trkpt lat="46.7628" lon="-0.1726">
        <ele>104.1</ele>
        <time>2019-02-03T20:47:13.671Z</time>
      </trkpt>
      <trkpt lat="46.76294" lon="-0.17272">
        <ele>101.4</ele>
        <time>2019-02-03T20:47:13.996Z</time>
      </trkpt>
      <trkpt lat="46.76307" lon="-0.17289">
        <ele>100</ele>
        <time>2019-02-03T20:47:14.346Z</time>
      </trkpt>
      <trkpt lat="46.76316" lon="-0.17305">
        <ele>98.3</ele>
        <time>2019-02-03T20:47:14.630Z</time>
      </trkpt>
      <trkpt lat="46.76323" lon="-0.17318">
        <ele>96.3</ele>
        <time>2019-02-03T20:47:14.857Z</time>
      </trkpt>
      <trkpt lat="46.76332" lon="-0.17329">
        <ele>94.3</ele>
        <time>2019-02-03T20:47:15.092Z</time>
      </trkpt>
      <trkpt lat="46.76343" lon="-0.17334">
        <ele>92.3</ele>
        <time>2019-02-03T20:47:15.323Z</time>
      </trkpt>
      <trkpt lat="46.76351" lon="-0.17334">
        <ele>90.8</ele>
        <time>2019-02-03T20:47:15.483Z</time>
      </trkpt>
      <trkpt lat="46.76378" lon="-0.17323">
        <ele>88</ele>
        <time>2019-02-03T20:47:16.045Z</time>
      </trkpt>
      <trkpt lat="46.76398" lon="-0.17315">
        <ele>86.7</ele>
        <time>2019-02-03T20:47:16.461Z</time>
      </trkpt>
      <trkpt lat="46.76407" lon="-0.17296">
        <ele>85.6</ele>
        <time>2019-02-03T20:47:16.778Z</time>
      </trkpt>
      <trkpt lat="46.76413" lon="-0.17282">
        <ele>85.1</ele>
        <time>2019-02-03T20:47:17.006Z</time>
      </trkpt>
      <trkpt lat="46.76414" lon="-0.17281">
        <ele>85.1</ele>
        <time>2019-02-03T20:47:17.035Z</time>
      </trkpt>
      <trkpt lat="46.76416" lon="-0.17277">
        <ele>85.1</ele>
        <time>2019-02-03T20:47:17.095Z</time>
      </trkpt>
      <trkpt lat="46.76409" lon="-0.17226">
        <ele>86.3</ele>
        <time>2019-02-03T20:47:17.809Z</time>
      </trkpt>
      <trkpt lat="46.7641" lon="-0.17221">
        <ele>86.6</ele>
        <time>2019-02-03T20:47:17.880Z</time>
      </trkpt>
      <trkpt lat="46.76437" lon="-0.17201">
        <ele>89.2</ele>
        <time>2019-02-03T20:47:18.487Z</time>
      </trkpt>
      <trkpt lat="46.76459" lon="-0.17182">
        <ele>92.6</ele>
        <time>2019-02-03T20:47:18.999Z</time>
      </trkpt>
      <trkpt lat="46.76462" lon="-0.17162">
        <ele>93.8</ele>
        <time>2019-02-03T20:47:19.280Z</time>
      </trkpt>
      <trkpt lat="46.76463" lon="-0.17155">
        <ele>94</ele>
        <time>2019-02-03T20:47:19.378Z</time>
      </trkpt>
      <trkpt lat="46.76469" lon="-0.1715">
        <ele>95.3</ele>
        <time>2019-02-03T20:47:19.516Z</time>
      </trkpt>
      <trkpt lat="46.76472" lon="-0.1715">
        <ele>96</ele>
        <time>2019-02-03T20:47:19.576Z</time>
      </trkpt>
      <trkpt lat="46.76477" lon="-0.17151">
        <ele>96.9</ele>
        <time>2019-02-03T20:47:19.677Z</time>
      </trkpt>
      <trkpt lat="46.76501" lon="-0.17165">
        <ele>100.3</ele>
        <time>2019-02-03T20:47:20.195Z</time>
      </trkpt>
      <trkpt lat="46.7652" lon="-0.17188">
        <ele>102.8</ele>
        <time>2019-02-03T20:47:20.690Z</time>
      </trkpt>
      <trkpt lat="46.76548" lon="-0.17227">
        <ele>105.5</ele>
        <time>2019-02-03T20:47:21.466Z</time>
      </trkpt>
      <trkpt lat="46.76571" lon="-0.17249">
        <ele>108.5</ele>
        <time>2019-02-03T20:47:22.017Z</time>
      </trkpt>
      <trkpt lat="46.76588" lon="-0.17262">
        <ele>109.3</ele>
        <time>2019-02-03T20:47:22.402Z</time>
      </trkpt>
      <trkpt lat="46.76595" lon="-0.17265">
        <ele>109.6</ele>
        <time>2019-02-03T20:47:22.548Z</time>
      </trkpt>
      <trkpt lat="46.76605" lon="-0.17269">
        <ele>110</ele>
        <time>2019-02-03T20:47:22.756Z</time>
      </trkpt>
      <trkpt lat="46.76629" lon="-0.17269">
        <ele>111</ele>
        <time>2019-02-03T20:47:23.237Z</time>
      </trkpt>
      <trkpt lat="46.76652" lon="-0.17259">
        <ele>112</ele>
        <time>2019-02-03T20:47:23.718Z</time>
      </trkpt>
      <trkpt lat="46.76666" lon="-0.1725">
        <ele>114</ele>
        <time>2019-02-03T20:47:24.025Z</time>
      </trkpt>
      <trkpt lat="46.76672" lon="-0.17249">
        <ele>113</ele>
        <time>2019-02-03T20:47:24.146Z</time>
      </trkpt>
      <trkpt lat="46.76678" lon="-0.17253">
        <ele>111.9</ele>
        <time>2019-02-03T20:47:24.278Z</time>
      </trkpt>
      <trkpt lat="46.76689" lon="-0.17272">
        <ele>113</ele>
        <time>2019-02-03T20:47:24.619Z</time>
      </trkpt>
      <trkpt lat="46.76696" lon="-0.17276">
        <ele>114.7</ele>
        <time>2019-02-03T20:47:24.770Z</time>
      </trkpt>
      <trkpt lat="46.76706" lon="-0.1727">
        <ele>114.7</ele>
        <time>2019-02-03T20:47:24.987Z</time>
      </trkpt>
      <trkpt lat="46.76739" lon="-0.1724">
        <ele>115.2</ele>
        <time>2019-02-03T20:47:25.766Z</time>
      </trkpt>
      <trkpt lat="46.76753" lon="-0.17232">
        <ele>116.5</ele>
        <time>2019-02-03T20:47:26.067Z</time>
      </trkpt>
      <trkpt lat="46.76801" lon="-0.17224">
        <ele>118.7</ele>
        <time>2019-02-03T20:47:27.035Z</time>
      </trkpt>
      <trkpt lat="46.76827" lon="-0.17218">
        <ele>119.5</ele>
        <time>2019-02-03T20:47:27.560Z</time>
      </trkpt>
      <trkpt lat="46.76828" lon="-0.17217">
        <ele>119.5</ele>
        <time>2019-02-03T20:47:27.589Z</time>
      </trkpt>
      <trkpt lat="46.76829" lon="-0.17217">
        <ele>119.5</ele>
        <time>2019-02-03T20:47:27.604Z</time>
      </trkpt>
      <trkpt lat="46.76866" lon="-0.17203">
        <ele>119.6</ele>
        <time>2019-02-03T20:47:28.370Z</time>
      </trkpt>
      <trkpt lat="46.7689" lon="-0.17194">
        <ele>119</ele>
        <time>2019-02-03T20:47:28.867Z</time>
      </trkpt>
      <trkpt lat="46.769" lon="-0.17192">
        <ele>118.9</ele>
        <time>2019-02-03T20:47:29.069Z</time>
      </trkpt>
      <trkpt lat="46.7691" lon="-0.17195">
        <ele>119</ele>
        <time>2019-02-03T20:47:29.274Z</time>
      </trkpt>
      <trkpt lat="46.7692" lon="-0.17202">
        <ele>119.5</ele>
        <time>2019-02-03T20:47:29.496Z</time>
      </trkpt>
      <trkpt lat="46.7694" lon="-0.17222">
        <ele>120.2</ele>
        <time>2019-02-03T20:47:29.982Z</time>
      </trkpt>
      <trkpt lat="46.77028" lon="-0.17312">
        <ele>120.2</ele>
        <time>2019-02-03T20:47:32.135Z</time>
      </trkpt>
      <trkpt lat="46.77055" lon="-0.17335">
        <ele>120.1</ele>
        <time>2019-02-03T20:47:32.761Z</time>
      </trkpt>
      <trkpt lat="46.77064" lon="-0.1734">
        <ele>120.2</ele>
        <time>2019-02-03T20:47:32.954Z</time>
      </trkpt>
      <trkpt lat="46.77071" lon="-0.17343">
        <ele>120.2</ele>
        <time>2019-02-03T20:47:33.106Z</time>
      </trkpt>
      <trkpt lat="46.77079" lon="-0.17347">
        <ele>120.1</ele>
        <time>2019-02-03T20:47:33.270Z</time>
      </trkpt>
      <trkpt lat="46.77106" lon="-0.17357">
        <ele>120.6</ele>
        <time>2019-02-03T20:47:33.828Z</time>
      </trkpt>
      <trkpt lat="46.77114" lon="-0.17366">
        <ele>121.1</ele>
        <time>2019-02-03T20:47:34.030Z</time>
      </trkpt>
      <trkpt lat="46.7713" lon="-0.17365">
        <ele>120.5</ele>
        <time>2019-02-03T20:47:34.351Z</time>
      </trkpt>
      <trkpt lat="46.77153" lon="-0.17364">
        <ele>120.1</ele>
        <time>2019-02-03T20:47:34.812Z</time>
      </trkpt>
      <trkpt lat="46.77186" lon="-0.17368">
        <ele>119.6</ele>
        <time>2019-02-03T20:47:35.476Z</time>
      </trkpt>
      <trkpt lat="46.77243" lon="-0.1738">
        <ele>117.3</ele>
        <time>2019-02-03T20:47:36.630Z</time>
      </trkpt>
      <trkpt lat="46.77276" lon="-0.17385">
        <ele>116.7</ele>
        <time>2019-02-03T20:47:37.295Z</time>
      </trkpt>
      <trkpt lat="46.77292" lon="-0.17385">
        <ele>116.8</ele>
        <time>2019-02-03T20:47:37.616Z</time>
      </trkpt>
      <trkpt lat="46.77304" lon="-0.17384">
        <ele>116.8</ele>
        <time>2019-02-03T20:47:37.857Z</time>
      </trkpt>
      <trkpt lat="46.7731" lon="-0.17383">
        <ele>116.8</ele>
        <time>2019-02-03T20:47:37.978Z</time>
      </trkpt>
      <trkpt lat="46.77315" lon="-0.17398">
        <ele>117</ele>
        <time>2019-02-03T20:47:38.207Z</time>
      </trkpt>
      <trkpt lat="46.77322" lon="-0.17411">
        <ele>117</ele>
        <time>2019-02-03T20:47:38.434Z</time>
      </trkpt>
      <trkpt lat="46.77329" lon="-0.17419">
        <ele>117.1</ele>
        <time>2019-02-03T20:47:38.612Z</time>
      </trkpt>
      <trkpt lat="46.77337" lon="-0.17424">
        <ele>117.4</ele>
        <time>2019-02-03T20:47:38.786Z</time>
      </trkpt>
      <trkpt lat="46.77388" lon="-0.17443">
        <ele>118.9</ele>
        <time>2019-02-03T20:47:39.841Z</time>
      </trkpt>
      <trkpt lat="46.77404" lon="-0.1745">
        <ele>119.3</ele>
        <time>2019-02-03T20:47:40.176Z</time>
      </trkpt>
      <trkpt lat="46.77423" lon="-0.17463">
        <ele>120.3</ele>
        <time>2019-02-03T20:47:40.596Z</time>
      </trkpt>
      <trkpt lat="46.77452" lon="-0.17496">
        <ele>121.9</ele>
        <time>2019-02-03T20:47:41.333Z</time>
      </trkpt>
      <trkpt lat="46.77509" lon="-0.17562">
        <ele>126.3</ele>
        <time>2019-02-03T20:47:42.791Z</time>
      </trkpt>
      <trkpt lat="46.77522" lon="-0.17574">
        <ele>128.1</ele>
        <time>2019-02-03T20:47:43.099Z</time>
      </trkpt>
      <trkpt lat="46.77529" lon="-0.17576">
        <ele>128.5</ele>
        <time>2019-02-03T20:47:43.242Z</time>
      </trkpt>
      <trkpt lat="46.77539" lon="-0.17576">
        <ele>128.9</ele>
        <time>2019-02-03T20:47:43.442Z</time>
      </trkpt>
      <trkpt lat="46.77543" lon="-0.17575">
        <ele>129</ele>
        <time>2019-02-03T20:47:43.523Z</time>
      </trkpt>
      <trkpt lat="46.77544" lon="-0.17575">
        <ele>129</ele>
        <time>2019-02-03T20:47:43.552Z</time>
      </trkpt>
      <trkpt lat="46.77561" lon="-0.17573">
        <ele>129.5</ele>
        <time>2019-02-03T20:47:43.885Z</time>
      </trkpt>
      <trkpt lat="46.7759" lon="-0.1757">
        <ele>130.4</ele>
        <time>2019-02-03T20:47:44.468Z</time>
      </trkpt>
      <trkpt lat="46.77597" lon="-0.17571">
        <ele>130.8</ele>
        <time>2019-02-03T20:47:44.609Z</time>
      </trkpt>
      <trkpt lat="46.77607" lon="-0.17578">
        <ele>131.6</ele>
        <time>2019-02-03T20:47:44.831Z</time>
      </trkpt>
      <trkpt lat="46.77622" lon="-0.17587">
        <ele>132.6</ele>
        <time>2019-02-03T20:47:45.156Z</time>
      </trkpt>
      <trkpt lat="46.77629" lon="-0.17592">
        <ele>133.1</ele>
        <time>2019-02-03T20:47:45.312Z</time>
      </trkpt>
      <trkpt lat="46.77629" lon="-0.17594">
        <ele>133.2</ele>
        <time>2019-02-03T20:47:45.339Z</time>
      </trkpt>
      <trkpt lat="46.77627" lon="-0.1761">
        <ele>133.9</ele>
        <time>2019-02-03T20:47:45.562Z</time>
      </trkpt>
      <trkpt lat="46.77634" lon="-0.1766">
        <ele>135</ele>
        <time>2019-02-03T20:47:46.262Z</time>
      </trkpt>
      <trkpt lat="46.77629" lon="-0.17747">
        <ele>136.4</ele>
        <time>2019-02-03T20:47:47.460Z</time>
      </trkpt>
      <trkpt lat="46.77628" lon="-0.17809">
        <ele>136.4</ele>
        <time>2019-02-03T20:47:48.311Z</time>
      </trkpt>
      <trkpt lat="46.7763" lon="-0.17851">
        <ele>135.9</ele>
        <time>2019-02-03T20:47:48.889Z</time>
      </trkpt>
      <trkpt lat="46.77624" lon="-0.1786">
        <ele>136.1</ele>
        <time>2019-02-03T20:47:49.059Z</time>
      </trkpt>
      <trkpt lat="46.77624" lon="-0.1786">
        <ele>136.1</ele>
        <time>2019-02-03T20:47:49.062Z</time>
      </trkpt>
      <trkpt lat="46.7763" lon="-0.17851">
        <ele>135.9</ele>
        <time>2019-02-03T20:47:49.234Z</time>
      </trkpt>
      <trkpt lat="46.77631" lon="-0.17891">
        <ele>134.5</ele>
        <time>2019-02-03T20:47:49.782Z</time>
      </trkpt>
      <trkpt lat="46.77631" lon="-0.17893">
        <ele>134.4</ele>
        <time>2019-02-03T20:47:49.811Z</time>
      </trkpt>
      <trkpt lat="46.77632" lon="-0.17927">
        <ele>133.1</ele>
        <time>2019-02-03T20:47:50.278Z</time>
      </trkpt>
      <trkpt lat="46.77641" lon="-0.18063">
        <ele>126.8</ele>
        <time>2019-02-03T20:47:52.153Z</time>
      </trkpt>
      <trkpt lat="46.77649" lon="-0.18134">
        <ele>124.7</ele>
        <time>2019-02-03T20:47:53.140Z</time>
      </trkpt>
      <trkpt lat="46.77646" lon="-0.18142">
        <ele>124.6</ele>
        <time>2019-02-03T20:47:53.265Z</time>
      </trkpt>
      <trkpt lat="46.77642" lon="-0.18157">
        <ele>124.2</ele>
        <time>2019-02-03T20:47:53.486Z</time>
      </trkpt>
      <trkpt lat="46.77632" lon="-0.18226">
        <ele>122.7</ele>
        <time>2019-02-03T20:47:54.454Z</time>
      </trkpt>
      <trkpt lat="46.77622" lon="-0.18281">
        <ele>123.1</ele>
        <time>2019-02-03T20:47:55.235Z</time>
      </trkpt>
      <trkpt lat="46.77616" lon="-0.18312">
        <ele>122.4</ele>
        <time>2019-02-03T20:47:55.677Z</time>
      </trkpt>
      <trkpt lat="46.77608" lon="-0.18339">
        <ele>121.9</ele>
        <time>2019-02-03T20:47:56.081Z</time>
      </trkpt>
      <trkpt lat="46.7759" lon="-0.18381">
        <ele>121.8</ele>
        <time>2019-02-03T20:47:56.761Z</time>
      </trkpt>
      <trkpt lat="46.77571" lon="-0.18412">
        <ele>121.1</ele>
        <time>2019-02-03T20:47:57.332Z</time>
      </trkpt>
      <trkpt lat="46.77543" lon="-0.18446">
        <ele>121.4</ele>
        <time>2019-02-03T20:47:58.062Z</time>
      </trkpt>
      <trkpt lat="46.77499" lon="-0.18475">
        <ele>122.8</ele>
        <time>2019-02-03T20:47:59.029Z</time>
      </trkpt>
      <trkpt lat="46.77474" lon="-0.18497">
        <ele>122.9</ele>
        <time>2019-02-03T20:47:59.614Z</time>
      </trkpt>
      <trkpt lat="46.77442" lon="-0.18532">
        <ele>123</ele>
        <time>2019-02-03T20:48:00.415Z</time>
      </trkpt>
      <trkpt lat="46.77414" lon="-0.18568">
        <ele>123.7</ele>
        <time>2019-02-03T20:48:01.163Z</time>
      </trkpt>
      <trkpt lat="46.77408" lon="-0.1858">
        <ele>123.7</ele>
        <time>2019-02-03T20:48:01.367Z</time>
      </trkpt>
      <trkpt lat="46.77392" lon="-0.18635">
        <ele>123</ele>
        <time>2019-02-03T20:48:02.187Z</time>
      </trkpt>
      <trkpt lat="46.77375" lon="-0.18704">
        <ele>122.2</ele>
        <time>2019-02-03T20:48:03.193Z</time>
      </trkpt>
      <trkpt lat="46.77373" lon="-0.18709">
        <ele>122.2</ele>
        <time>2019-02-03T20:48:03.272Z</time>
      </trkpt>
      <trkpt lat="46.77366" lon="-0.18727">
        <ele>122.2</ele>
        <time>2019-02-03T20:48:03.556Z</time>
      </trkpt>
      <trkpt lat="46.77356" lon="-0.18747">
        <ele>121.7</ele>
        <time>2019-02-03T20:48:03.896Z</time>
      </trkpt>
      <trkpt lat="46.77353" lon="-0.18751">
        <ele>121.9</ele>
        <time>2019-02-03T20:48:03.988Z</time>
      </trkpt>
      <trkpt lat="46.77351" lon="-0.18753">
        <ele>122</ele>
        <time>2019-02-03T20:48:04.017Z</time>
      </trkpt>
      <trkpt lat="46.77328" lon="-0.18783">
        <ele>123.3</ele>
        <time>2019-02-03T20:48:04.644Z</time>
      </trkpt>
      <trkpt lat="46.77315" lon="-0.18798">
        <ele>123.8</ele>
        <time>2019-02-03T20:48:04.976Z</time>
      </trkpt>
      <trkpt lat="46.77273" lon="-0.18835">
        <ele>125.1</ele>
        <time>2019-02-03T20:48:05.959Z</time>
      </trkpt>
      <trkpt lat="46.77202" lon="-0.1888">
        <ele>127</ele>
        <time>2019-02-03T20:48:07.510Z</time>
      </trkpt>
      <trkpt lat="46.77162" lon="-0.18916">
        <ele>127.2</ele>
        <time>2019-02-03T20:48:08.452Z</time>
      </trkpt>
      <trkpt lat="46.77161" lon="-0.18915">
        <ele>127.2</ele>
        <time>2019-02-03T20:48:08.470Z</time>
      </trkpt>
      <trkpt lat="46.77132" lon="-0.18944">
        <ele>127.2</ele>
        <time>2019-02-03T20:48:09.175Z</time>
      </trkpt>
      <trkpt lat="46.77131" lon="-0.18945">
        <ele>127.3</ele>
        <time>2019-02-03T20:48:09.204Z</time>
      </trkpt>
      <trkpt lat="46.7711" lon="-0.18965">
        <ele>127.3</ele>
        <time>2019-02-03T20:48:09.707Z</time>
      </trkpt>
      <trkpt lat="46.77107" lon="-0.18968">
        <ele>127.2</ele>
        <time>2019-02-03T20:48:09.785Z</time>
      </trkpt>
      <trkpt lat="46.77073" lon="-0.18998">
        <ele>126.7</ele>
        <time>2019-02-03T20:48:10.567Z</time>
      </trkpt>
      <trkpt lat="46.77072" lon="-0.18999">
        <ele>126.6</ele>
        <time>2019-02-03T20:48:10.596Z</time>
      </trkpt>
      <trkpt lat="46.77038" lon="-0.19002">
        <ele>125.3</ele>
        <time>2019-02-03T20:48:11.289Z</time>
      </trkpt>
      <trkpt lat="46.77036" lon="-0.19002">
        <ele>125.2</ele>
        <time>2019-02-03T20:48:11.319Z</time>
      </trkpt>
      <trkpt lat="46.76988" lon="-0.19004">
        <ele>121.4</ele>
        <time>2019-02-03T20:48:12.291Z</time>
      </trkpt>
      <trkpt lat="46.76986" lon="-0.19005">
        <ele>121.3</ele>
        <time>2019-02-03T20:48:12.321Z</time>
      </trkpt>
      <trkpt lat="46.76929" lon="-0.19007">
        <ele>120.6</ele>
        <time>2019-02-03T20:48:13.477Z</time>
      </trkpt>
      <trkpt lat="46.76927" lon="-0.19007">
        <ele>120.6</ele>
        <time>2019-02-03T20:48:13.507Z</time>
      </trkpt>
      <trkpt lat="46.76897" lon="-0.19002">
        <ele>120.9</ele>
        <time>2019-02-03T20:48:14.108Z</time>
      </trkpt>
      <trkpt lat="46.76896" lon="-0.19001">
        <ele>121</ele>
        <time>2019-02-03T20:48:14.138Z</time>
      </trkpt>
      <trkpt lat="46.76876" lon="-0.18988">
        <ele>122.1</ele>
        <time>2019-02-03T20:48:14.579Z</time>
      </trkpt>
      <trkpt lat="46.76874" lon="-0.18987">
        <ele>122.2</ele>
        <time>2019-02-03T20:48:14.606Z</time>
      </trkpt>
      <trkpt lat="46.76772" lon="-0.19001">
        <ele>122.8</ele>
        <time>2019-02-03T20:48:16.663Z</time>
      </trkpt>
      <trkpt lat="46.76771" lon="-0.19001">
        <ele>122.8</ele>
        <time>2019-02-03T20:48:16.691Z</time>
      </trkpt>
      <trkpt lat="46.76674" lon="-0.19002">
        <ele>120.9</ele>
        <time>2019-02-03T20:48:18.628Z</time>
      </trkpt>
      <trkpt lat="46.76673" lon="-0.19002">
        <ele>120.9</ele>
        <time>2019-02-03T20:48:18.657Z</time>
      </trkpt>
      <trkpt lat="46.76628" lon="-0.18988">
        <ele>119.4</ele>
        <time>2019-02-03T20:48:19.578Z</time>
      </trkpt>
      <trkpt lat="46.76626" lon="-0.18988">
        <ele>119.3</ele>
        <time>2019-02-03T20:48:19.606Z</time>
      </trkpt>
      <trkpt lat="46.76608" lon="-0.18949">
        <ele>118</ele>
        <time>2019-02-03T20:48:20.257Z</time>
      </trkpt>
      <trkpt lat="46.76607" lon="-0.18947">
        <ele>117.9</ele>
        <time>2019-02-03T20:48:20.284Z</time>
      </trkpt>
      <trkpt lat="46.76545" lon="-0.18765">
        <ele>117.3</ele>
        <time>2019-02-03T20:48:23.081Z</time>
      </trkpt>
      <trkpt lat="46.76544" lon="-0.18764">
        <ele>117.3</ele>
        <time>2019-02-03T20:48:23.103Z</time>
      </trkpt>
      <trkpt lat="46.76484" lon="-0.18581">
        <ele>120.1</ele>
        <time>2019-02-03T20:48:25.890Z</time>
      </trkpt>
      <trkpt lat="46.76484" lon="-0.18579">
        <ele>120.2</ele>
        <time>2019-02-03T20:48:25.912Z</time>
      </trkpt>
      <trkpt lat="46.76474" lon="-0.18558">
        <ele>121</ele>
        <time>2019-02-03T20:48:26.258Z</time>
      </trkpt>
      <trkpt lat="46.76474" lon="-0.18556">
        <ele>121</ele>
        <time>2019-02-03T20:48:26.286Z</time>
      </trkpt>
      <trkpt lat="46.76388" lon="-0.18436">
        <ele>122</ele>
        <time>2019-02-03T20:48:28.661Z</time>
      </trkpt>
      <trkpt lat="46.76388" lon="-0.18436">
        <ele>122</ele>
        <time>2019-02-03T20:48:28.661Z</time>
      </trkpt>
      <trkpt lat="46.76281" lon="-0.18584">
        <ele>119</ele>
        <time>2019-02-03T20:48:31.620Z</time>
      </trkpt>
      <trkpt lat="46.76262" lon="-0.18591">
        <ele>118.4</ele>
        <time>2019-02-03T20:48:32.000Z</time>
      </trkpt>
      <trkpt lat="46.76094" lon="-0.18818">
        <ele>119.3</ele>
        <time>2019-02-03T20:48:36.591Z</time>
      </trkpt>
      <trkpt lat="46.76108" lon="-0.1884">
        <ele>119.3</ele>
        <time>2019-02-03T20:48:36.997Z</time>
      </trkpt>
      <trkpt lat="46.75915" lon="-0.19325">
        <ele>127.4</ele>
        <time>2019-02-03T20:48:44.699Z</time>
      </trkpt>
      <trkpt lat="46.75915" lon="-0.19327">
        <ele>127.3</ele>
        <time>2019-02-03T20:48:44.726Z</time>
      </trkpt>
      <trkpt lat="46.75915" lon="-0.19333">
        <ele>127.1</ele>
        <time>2019-02-03T20:48:44.813Z</time>
      </trkpt>
      <trkpt lat="46.75915" lon="-0.19339">
        <ele>127.1</ele>
        <time>2019-02-03T20:48:44.895Z</time>
      </trkpt>
      <trkpt lat="46.75914" lon="-0.19343">
        <ele>127.1</ele>
        <time>2019-02-03T20:48:44.953Z</time>
      </trkpt>
      <trkpt lat="46.75881" lon="-0.19358">
        <ele>128</ele>
        <time>2019-02-03T20:48:45.646Z</time>
      </trkpt>
      <trkpt lat="46.75858" lon="-0.19369">
        <ele>127.8</ele>
        <time>2019-02-03T20:48:46.131Z</time>
      </trkpt>
      <trkpt lat="46.75848" lon="-0.19371">
        <ele>128.1</ele>
        <time>2019-02-03T20:48:46.333Z</time>
      </trkpt>
      <trkpt lat="46.75824" lon="-0.19369">
        <ele>128.7</ele>
        <time>2019-02-03T20:48:46.815Z</time>
      </trkpt>
      <trkpt lat="46.75782" lon="-0.19365">
        <ele>128.9</ele>
        <time>2019-02-03T20:48:47.658Z</time>
      </trkpt>
      <trkpt lat="46.75776" lon="-0.19364">
        <ele>128.9</ele>
        <time>2019-02-03T20:48:47.779Z</time>
      </trkpt>
      <trkpt lat="46.75751" lon="-0.19419">
        <ele>128</ele>
        <time>2019-02-03T20:48:48.685Z</time>
      </trkpt>
      <trkpt lat="46.75735" lon="-0.1945">
        <ele>128</ele>
        <time>2019-02-03T20:48:49.218Z</time>
      </trkpt>
      <trkpt lat="46.75731" lon="-0.19455">
        <ele>128</ele>
        <time>2019-02-03T20:48:49.324Z</time>
      </trkpt>
      <trkpt lat="46.75724" lon="-0.19457">
        <ele>128</ele>
        <time>2019-02-03T20:48:49.467Z</time>
      </trkpt>
      <trkpt lat="46.75714" lon="-0.19456">
        <ele>128</ele>
        <time>2019-02-03T20:48:49.668Z</time>
      </trkpt>
      <trkpt lat="46.75702" lon="-0.19451">
        <ele>128</ele>
        <time>2019-02-03T20:48:49.918Z</time>
      </trkpt>
      <trkpt lat="46.75694" lon="-0.1945">
        <ele>128</ele>
        <time>2019-02-03T20:48:50.079Z</time>
      </trkpt>
      <trkpt lat="46.75651" lon="-0.19458">
        <ele>128.6</ele>
        <time>2019-02-03T20:48:50.948Z</time>
      </trkpt>
      <trkpt lat="46.75642" lon="-0.19462">
        <ele>128.9</ele>
        <time>2019-02-03T20:48:51.137Z</time>
      </trkpt>
      <trkpt lat="46.75625" lon="-0.19473">
        <ele>129</ele>
        <time>2019-02-03T20:48:51.510Z</time>
      </trkpt>
      <trkpt lat="46.75579" lon="-0.19509">
        <ele>130</ele>
        <time>2019-02-03T20:48:52.556Z</time>
      </trkpt>
      <trkpt lat="46.75533" lon="-0.19549">
        <ele>130.8</ele>
        <time>2019-02-03T20:48:53.629Z</time>
      </trkpt>
      <trkpt lat="46.75474" lon="-0.19609">
        <ele>131.9</ele>
        <time>2019-02-03T20:48:55.070Z</time>
      </trkpt>
      <trkpt lat="46.75458" lon="-0.19628">
        <ele>132</ele>
        <time>2019-02-03T20:48:55.483Z</time>
      </trkpt>
      <trkpt lat="46.7543" lon="-0.19697">
        <ele>133</ele>
        <time>2019-02-03T20:48:56.584Z</time>
      </trkpt>
      <trkpt lat="46.75427" lon="-0.19704">
        <ele>133</ele>
        <time>2019-02-03T20:48:56.696Z</time>
      </trkpt>
      <trkpt lat="46.75418" lon="-0.19729">
        <ele>133</ele>
        <time>2019-02-03T20:48:57.085Z</time>
      </trkpt>
      <trkpt lat="46.75409" lon="-0.19755">
        <ele>133</ele>
        <time>2019-02-03T20:48:57.485Z</time>
      </trkpt>
      <trkpt lat="46.75401" lon="-0.1977">
        <ele>133.4</ele>
        <time>2019-02-03T20:48:57.746Z</time>
      </trkpt>
      <trkpt lat="46.75375" lon="-0.19812">
        <ele>134</ele>
        <time>2019-02-03T20:48:58.523Z</time>
      </trkpt>
      <trkpt lat="46.75342" lon="-0.19855">
        <ele>134</ele>
        <time>2019-02-03T20:48:59.409Z</time>
      </trkpt>
      <trkpt lat="46.75325" lon="-0.19879">
        <ele>134</ele>
        <time>2019-02-03T20:48:59.883Z</time>
      </trkpt>
      <trkpt lat="46.75281" lon="-0.19928">
        <ele>134</ele>
        <time>2019-02-03T20:49:00.994Z</time>
      </trkpt>
      <trkpt lat="46.7528" lon="-0.19929">
        <ele>134</ele>
        <time>2019-02-03T20:49:01.021Z</time>
      </trkpt>
      <trkpt lat="46.75275" lon="-0.19934">
        <ele>134</ele>
        <time>2019-02-03T20:49:01.138Z</time>
      </trkpt>
      <trkpt lat="46.7519" lon="-0.20023">
        <ele>133</ele>
        <time>2019-02-03T20:49:03.234Z</time>
      </trkpt>
      <trkpt lat="46.75178" lon="-0.20017">
        <ele>133</ele>
        <time>2019-02-03T20:49:03.488Z</time>
      </trkpt>
      <trkpt lat="46.75165" lon="-0.20014">
        <ele>133</ele>
        <time>2019-02-03T20:49:03.752Z</time>
      </trkpt>
      <trkpt lat="46.75157" lon="-0.20014">
        <ele>132.8</ele>
        <time>2019-02-03T20:49:03.912Z</time>
      </trkpt>
      <trkpt lat="46.75151" lon="-0.20016">
        <ele>132.7</ele>
        <time>2019-02-03T20:49:04.035Z</time>
      </trkpt>
      <trkpt lat="46.75145" lon="-0.20024">
        <ele>132.3</ele>
        <time>2019-02-03T20:49:04.198Z</time>
      </trkpt>
      <trkpt lat="46.75135" lon="-0.20059">
        <ele>132</ele>
        <time>2019-02-03T20:49:04.719Z</time>
      </trkpt>
      <trkpt lat="46.75124" lon="-0.20088">
        <ele>132</ele>
        <time>2019-02-03T20:49:05.174Z</time>
      </trkpt>
      <trkpt lat="46.75105" lon="-0.20126">
        <ele>132</ele>
        <time>2019-02-03T20:49:05.820Z</time>
      </trkpt>
      <trkpt lat="46.75085" lon="-0.20159">
        <ele>131.3</ele>
        <time>2019-02-03T20:49:06.425Z</time>
      </trkpt>
      <trkpt lat="46.75066" lon="-0.20183">
        <ele>131.6</ele>
        <time>2019-02-03T20:49:06.929Z</time>
      </trkpt>
      <trkpt lat="46.75035" lon="-0.20213">
        <ele>131.8</ele>
        <time>2019-02-03T20:49:07.674Z</time>
      </trkpt>
      <trkpt lat="46.75014" lon="-0.20229">
        <ele>131.8</ele>
        <time>2019-02-03T20:49:08.149Z</time>
      </trkpt>
      <trkpt lat="46.74995" lon="-0.20238">
        <ele>131.5</ele>
        <time>2019-02-03T20:49:08.549Z</time>
      </trkpt>
      <trkpt lat="46.74984" lon="-0.20241">
        <ele>131.7</ele>
        <time>2019-02-03T20:49:08.773Z</time>
      </trkpt>
      <trkpt lat="46.74969" lon="-0.20241">
        <ele>132</ele>
        <time>2019-02-03T20:49:09.074Z</time>
      </trkpt>
      <trkpt lat="46.74964" lon="-0.20241">
        <ele>132.1</ele>
        <time>2019-02-03T20:49:09.174Z</time>
      </trkpt>
      <trkpt lat="46.74953" lon="-0.2024">
        <ele>132.2</ele>
        <time>2019-02-03T20:49:09.395Z</time>
      </trkpt>
      <trkpt lat="46.74942" lon="-0.20241">
        <ele>132.4</ele>
        <time>2019-02-03T20:49:09.616Z</time>
      </trkpt>
      <trkpt lat="46.7493" lon="-0.20246">
        <ele>132.6</ele>
        <time>2019-02-03T20:49:09.866Z</time>
      </trkpt>
      <trkpt lat="46.7492" lon="-0.20255">
        <ele>132.7</ele>
        <time>2019-02-03T20:49:10.101Z</time>
      </trkpt>
      <trkpt lat="46.74894" lon="-0.20287">
        <ele>132.8</ele>
        <time>2019-02-03T20:49:10.783Z</time>
      </trkpt>
      <trkpt lat="46.74817" lon="-0.20385">
        <ele>133.6</ele>
        <time>2019-02-03T20:49:12.830Z</time>
      </trkpt>
      <trkpt lat="46.74794" lon="-0.20418">
        <ele>134.4</ele>
        <time>2019-02-03T20:49:13.474Z</time>
      </trkpt>
      <trkpt lat="46.74793" lon="-0.20419">
        <ele>134.4</ele>
        <time>2019-02-03T20:49:13.501Z</time>
      </trkpt>
      <trkpt lat="46.7478" lon="-0.20437">
        <ele>134.2</ele>
        <time>2019-02-03T20:49:13.860Z</time>
      </trkpt>
      <trkpt lat="46.7474" lon="-0.20498">
        <ele>134.4</ele>
        <time>2019-02-03T20:49:15.019Z</time>
      </trkpt>
      <trkpt lat="46.74696" lon="-0.20563">
        <ele>134.9</ele>
        <time>2019-02-03T20:49:16.274Z</time>
      </trkpt>
      <trkpt lat="46.74681" lon="-0.20553">
        <ele>135.5</ele>
        <time>2019-02-03T20:49:16.604Z</time>
      </trkpt>
      <trkpt lat="46.74659" lon="-0.20532">
        <ele>136.3</ele>
        <time>2019-02-03T20:49:17.131Z</time>
      </trkpt>
      <trkpt lat="46.74619" lon="-0.20489">
        <ele>137.7</ele>
        <time>2019-02-03T20:49:18.127Z</time>
      </trkpt>
      <trkpt lat="46.74598" lon="-0.20472">
        <ele>138</ele>
        <time>2019-02-03T20:49:18.608Z</time>
      </trkpt>
      <trkpt lat="46.74575" lon="-0.20457">
        <ele>138.1</ele>
        <time>2019-02-03T20:49:19.113Z</time>
      </trkpt>
      <trkpt lat="46.74515" lon="-0.20429">
        <ele>138.4</ele>
        <time>2019-02-03T20:49:20.375Z</time>
      </trkpt>
      <trkpt lat="46.74496" lon="-0.20417">
        <ele>138.2</ele>
        <time>2019-02-03T20:49:20.790Z</time>
      </trkpt>
      <trkpt lat="46.74426" lon="-0.20357">
        <ele>138.5</ele>
        <time>2019-02-03T20:49:22.417Z</time>
      </trkpt>
      <trkpt lat="46.74349" lon="-0.20292">
        <ele>138.7</ele>
        <time>2019-02-03T20:49:24.200Z</time>
      </trkpt>
      <trkpt lat="46.74315" lon="-0.20262">
        <ele>138.4</ele>
        <time>2019-02-03T20:49:24.996Z</time>
      </trkpt>
      <trkpt lat="46.74256" lon="-0.20217">
        <ele>137.4</ele>
        <time>2019-02-03T20:49:26.330Z</time>
      </trkpt>
      <trkpt lat="46.74192" lon="-0.2016">
        <ele>135.8</ele>
        <time>2019-02-03T20:49:27.833Z</time>
      </trkpt>
      <trkpt lat="46.74138" lon="-0.20113">
        <ele>136.1</ele>
        <time>2019-02-03T20:49:29.093Z</time>
      </trkpt>
      <trkpt lat="46.74123" lon="-0.20097">
        <ele>136.1</ele>
        <time>2019-02-03T20:49:29.465Z</time>
      </trkpt>
      <trkpt lat="46.74109" lon="-0.20075">
        <ele>136.2</ele>
        <time>2019-02-03T20:49:29.877Z</time>
      </trkpt>
      <trkpt lat="46.74104" lon="-0.20064">
        <ele>136.5</ele>
        <time>2019-02-03T20:49:30.058Z</time>
      </trkpt>
      <trkpt lat="46.74099" lon="-0.2005">
        <ele>136.8</ele>
        <time>2019-02-03T20:49:30.275Z</time>
      </trkpt>
      <trkpt lat="46.74066" lon="-0.19916">
        <ele>135.6</ele>
        <time>2019-02-03T20:49:32.230Z</time>
      </trkpt>
      <trkpt lat="46.74034" lon="-0.19787">
        <ele>133.1</ele>
        <time>2019-02-03T20:49:34.114Z</time>
      </trkpt>
      <trkpt lat="46.74029" lon="-0.19757">
        <ele>133</ele>
        <time>2019-02-03T20:49:34.538Z</time>
      </trkpt>
      <trkpt lat="46.74024" lon="-0.19706">
        <ele>133.8</ele>
        <time>2019-02-03T20:49:35.246Z</time>
      </trkpt>
      <trkpt lat="46.74018" lon="-0.19665">
        <ele>134.4</ele>
        <time>2019-02-03T20:49:35.822Z</time>
      </trkpt>
      <trkpt lat="46.74009" lon="-0.19625">
        <ele>135.2</ele>
        <time>2019-02-03T20:49:36.400Z</time>
      </trkpt>
      <trkpt lat="46.73962" lon="-0.19461">
        <ele>137.4</ele>
        <time>2019-02-03T20:49:38.841Z</time>
      </trkpt>
      <trkpt lat="46.7396" lon="-0.19455">
        <ele>137.4</ele>
        <time>2019-02-03T20:49:38.924Z</time>
      </trkpt>
      <trkpt lat="46.73938" lon="-0.19376">
        <ele>137.6</ele>
        <time>2019-02-03T20:49:40.103Z</time>
      </trkpt>
      <trkpt lat="46.73908" lon="-0.19289">
        <ele>137</ele>
        <time>2019-02-03T20:49:41.441Z</time>
      </trkpt>
      <trkpt lat="46.73873" lon="-0.19196">
        <ele>136.6</ele>
        <time>2019-02-03T20:49:42.898Z</time>
      </trkpt>
      <trkpt lat="46.73867" lon="-0.19174">
        <ele>136.8</ele>
        <time>2019-02-03T20:49:43.220Z</time>
      </trkpt>
      <trkpt lat="46.73866" lon="-0.19173">
        <ele>136.8</ele>
        <time>2019-02-03T20:49:43.247Z</time>
      </trkpt>
      <trkpt lat="46.73865" lon="-0.19168">
        <ele>136.9</ele>
        <time>2019-02-03T20:49:43.315Z</time>
      </trkpt>
      <trkpt lat="46.73841" lon="-0.19055">
        <ele>137.7</ele>
        <time>2019-02-03T20:49:44.940Z</time>
      </trkpt>
      <trkpt lat="46.73822" lon="-0.18965">
        <ele>138.1</ele>
        <time>2019-02-03T20:49:46.233Z</time>
      </trkpt>
      <trkpt lat="46.73818" lon="-0.18943">
        <ele>137.6</ele>
        <time>2019-02-03T20:49:46.546Z</time>
      </trkpt>
      <trkpt lat="46.73839" lon="-0.18916">
        <ele>136.8</ele>
        <time>2019-02-03T20:49:47.107Z</time>
      </trkpt>
      <trkpt lat="46.73884" lon="-0.18856">
        <ele>136</ele>
        <time>2019-02-03T20:49:48.329Z</time>
      </trkpt>
      <trkpt lat="46.7391" lon="-0.18827">
        <ele>135.2</ele>
        <time>2019-02-03T20:49:48.985Z</time>
      </trkpt>
      <trkpt lat="46.73923" lon="-0.18816">
        <ele>135</ele>
        <time>2019-02-03T20:49:49.286Z</time>
      </trkpt>
      <trkpt lat="46.73959" lon="-0.18785">
        <ele>134.9</ele>
        <time>2019-02-03T20:49:50.124Z</time>
      </trkpt>
      <trkpt lat="46.74007" lon="-0.18739">
        <ele>134.8</ele>
        <time>2019-02-03T20:49:51.275Z</time>
      </trkpt>
      <trkpt lat="46.74015" lon="-0.18722">
        <ele>135</ele>
        <time>2019-02-03T20:49:51.558Z</time>
      </trkpt>
      <trkpt lat="46.74016" lon="-0.18712">
        <ele>135</ele>
        <time>2019-02-03T20:49:51.697Z</time>
      </trkpt>
      <trkpt lat="46.74014" lon="-0.18701">
        <ele>135</ele>
        <time>2019-02-03T20:49:51.853Z</time>
      </trkpt>
      <trkpt lat="46.7401" lon="-0.18681">
        <ele>135</ele>
        <time>2019-02-03T20:49:52.139Z</time>
      </trkpt>
      <trkpt lat="46.74009" lon="-0.18665">
        <ele>135</ele>
        <time>2019-02-03T20:49:52.360Z</time>
      </trkpt>
      <trkpt lat="46.74012" lon="-0.18651">
        <ele>135</ele>
        <time>2019-02-03T20:49:52.561Z</time>
      </trkpt>
      <trkpt lat="46.74017" lon="-0.1864">
        <ele>135</ele>
        <time>2019-02-03T20:49:52.742Z</time>
      </trkpt>
      <trkpt lat="46.74049" lon="-0.18592">
        <ele>135</ele>
        <time>2019-02-03T20:49:53.662Z</time>
      </trkpt>
      <trkpt lat="46.74071" lon="-0.18565">
        <ele>135</ele>
        <time>2019-02-03T20:49:54.238Z</time>
      </trkpt>
      <trkpt lat="46.7413" lon="-0.18509">
        <ele>134.1</ele>
        <time>2019-02-03T20:49:55.648Z</time>
      </trkpt>
      <trkpt lat="46.74171" lon="-0.18469">
        <ele>132</ele>
        <time>2019-02-03T20:49:56.636Z</time>
      </trkpt>
      <trkpt lat="46.74174" lon="-0.18462">
        <ele>131.9</ele>
        <time>2019-02-03T20:49:56.749Z</time>
      </trkpt>
      <trkpt lat="46.74176" lon="-0.18453">
        <ele>131.8</ele>
        <time>2019-02-03T20:49:56.879Z</time>
      </trkpt>
      <trkpt lat="46.74184" lon="-0.18448">
        <ele>131.5</ele>
        <time>2019-02-03T20:49:57.053Z</time>
      </trkpt>
      <trkpt lat="46.74213" lon="-0.18436">
        <ele>131.2</ele>
        <time>2019-02-03T20:49:57.657Z</time>
      </trkpt>
      <trkpt lat="46.74221" lon="-0.18434">
        <ele>131.2</ele>
        <time>2019-02-03T20:49:57.820Z</time>
      </trkpt>
      <trkpt lat="46.74231" lon="-0.18409">
        <ele>129.9</ele>
        <time>2019-02-03T20:49:58.218Z</time>
      </trkpt>
      <trkpt lat="46.74247" lon="-0.1836">
        <ele>129</ele>
        <time>2019-02-03T20:49:58.963Z</time>
      </trkpt>
      <trkpt lat="46.74259" lon="-0.18328">
        <ele>128.3</ele>
        <time>2019-02-03T20:49:59.464Z</time>
      </trkpt>
      <trkpt lat="46.74306" lon="-0.18254">
        <ele>127.2</ele>
        <time>2019-02-03T20:50:00.850Z</time>
      </trkpt>
      <trkpt lat="46.74316" lon="-0.18229">
        <ele>127.1</ele>
        <time>2019-02-03T20:50:01.248Z</time>
      </trkpt>
      <trkpt lat="46.74319" lon="-0.18212">
        <ele>127</ele>
        <time>2019-02-03T20:50:01.489Z</time>
      </trkpt>
      <trkpt lat="46.74321" lon="-0.18192">
        <ele>126.9</ele>
        <time>2019-02-03T20:50:01.767Z</time>
      </trkpt>
      <trkpt lat="46.74329" lon="-0.18193">
        <ele>126.9</ele>
        <time>2019-02-03T20:50:01.928Z</time>
      </trkpt>
      <trkpt lat="46.74378" lon="-0.182">
        <ele>127.1</ele>
        <time>2019-02-03T20:50:02.915Z</time>
      </trkpt>
      <trkpt lat="46.74416" lon="-0.18208">
        <ele>127.5</ele>
        <time>2019-02-03T20:50:03.684Z</time>
      </trkpt>
      <trkpt lat="46.74464" lon="-0.18226">
        <ele>128</ele>
        <time>2019-02-03T20:50:04.677Z</time>
      </trkpt>
      <trkpt lat="46.7452" lon="-0.1825">
        <ele>128</ele>
        <time>2019-02-03T20:50:05.847Z</time>
      </trkpt>
      <trkpt lat="46.74534" lon="-0.18257">
        <ele>127.8</ele>
        <time>2019-02-03T20:50:06.144Z</time>
      </trkpt>
      <trkpt lat="46.74536" lon="-0.18254">
        <ele>127.7</ele>
        <time>2019-02-03T20:50:06.201Z</time>
      </trkpt>
      <trkpt lat="46.74551" lon="-0.18243">
        <ele>127.2</ele>
        <time>2019-02-03T20:50:06.537Z</time>
      </trkpt>
      <trkpt lat="46.74698" lon="-0.18174">
        <ele>127</ele>
        <time>2019-02-03T20:50:09.631Z</time>
      </trkpt>
      <trkpt lat="46.74744" lon="-0.18149">
        <ele>125.9</ele>
        <time>2019-02-03T20:50:10.615Z</time>
      </trkpt>
      <trkpt lat="46.74762" lon="-0.18138">
        <ele>124.5</ele>
        <time>2019-02-03T20:50:11.006Z</time>
      </trkpt>
      <trkpt lat="46.74783" lon="-0.18113">
        <ele>122.9</ele>
        <time>2019-02-03T20:50:11.549Z</time>
      </trkpt>
      <trkpt lat="46.74815" lon="-0.18058">
        <ele>118.7</ele>
        <time>2019-02-03T20:50:12.540Z</time>
      </trkpt>
      <trkpt lat="46.74832" lon="-0.18027">
        <ele>117</ele>
        <time>2019-02-03T20:50:13.085Z</time>
      </trkpt>
      <trkpt lat="46.7484" lon="-0.18005">
        <ele>115.7</ele>
        <time>2019-02-03T20:50:13.427Z</time>
      </trkpt>
      <trkpt lat="46.74859" lon="-0.17943">
        <ele>111.2</ele>
        <time>2019-02-03T20:50:14.360Z</time>
      </trkpt>
      <trkpt lat="46.74864" lon="-0.17921">
        <ele>110</ele>
        <time>2019-02-03T20:50:14.678Z</time>
      </trkpt>
      <trkpt lat="46.74871" lon="-0.17795">
        <ele>105.3</ele>
        <time>2019-02-03T20:50:16.414Z</time>
      </trkpt>
      <trkpt lat="46.74876" lon="-0.17744">
        <ele>102.8</ele>
        <time>2019-02-03T20:50:17.121Z</time>
      </trkpt>
      <trkpt lat="46.74855" lon="-0.17732">
        <ele>104.5</ele>
        <time>2019-02-03T20:50:17.573Z</time>
      </trkpt>
      <trkpt lat="46.74838" lon="-0.17722">
        <ele>105.6</ele>
        <time>2019-02-03T20:50:17.940Z</time>
      </trkpt>
      <trkpt lat="46.74795" lon="-0.17688">
        <ele>104.4</ele>
        <time>2019-02-03T20:50:18.920Z</time>
      </trkpt>
      <trkpt lat="46.74773" lon="-0.17671">
        <ele>103.3</ele>
        <time>2019-02-03T20:50:19.419Z</time>
      </trkpt>
      <trkpt lat="46.74767" lon="-0.17669">
        <ele>103.2</ele>
        <time>2019-02-03T20:50:19.542Z</time>
      </trkpt>
      <trkpt lat="46.74727" lon="-0.17663">
        <ele>102.5</ele>
        <time>2019-02-03T20:50:20.348Z</time>
      </trkpt>
      <trkpt lat="46.74682" lon="-0.17673">
        <ele>101.3</ele>
        <time>2019-02-03T20:50:21.260Z</time>
      </trkpt>
      <trkpt lat="46.74663" lon="-0.17677">
        <ele>101.6</ele>
        <time>2019-02-03T20:50:21.645Z</time>
      </trkpt>
      <trkpt lat="46.74653" lon="-0.17676">
        <ele>101.7</ele>
        <time>2019-02-03T20:50:21.846Z</time>
      </trkpt>
      <trkpt lat="46.74648" lon="-0.17672">
        <ele>101.3</ele>
        <time>2019-02-03T20:50:21.960Z</time>
      </trkpt>
      <trkpt lat="46.74642" lon="-0.17663">
        <ele>100.6</ele>
        <time>2019-02-03T20:50:22.132Z</time>
      </trkpt>
      <trkpt lat="46.74635" lon="-0.17648">
        <ele>100.1</ele>
        <time>2019-02-03T20:50:22.381Z</time>
      </trkpt>
      <trkpt lat="46.74634" lon="-0.17646">
        <ele>100</ele>
        <time>2019-02-03T20:50:22.414Z</time>
      </trkpt>
      <trkpt lat="46.7463" lon="-0.17629">
        <ele>99.5</ele>
        <time>2019-02-03T20:50:22.661Z</time>
      </trkpt>
      <trkpt lat="46.74625" lon="-0.17616">
        <ele>99.3</ele>
        <time>2019-02-03T20:50:22.866Z</time>
      </trkpt>
      <trkpt lat="46.7461" lon="-0.17597">
        <ele>99</ele>
        <time>2019-02-03T20:50:23.264Z</time>
      </trkpt>
      <trkpt lat="46.74589" lon="-0.17583">
        <ele>98.8</ele>
        <time>2019-02-03T20:50:23.727Z</time>
      </trkpt>
      <trkpt lat="46.74555" lon="-0.17566">
        <ele>97.4</ele>
        <time>2019-02-03T20:50:24.447Z</time>
      </trkpt>
      <trkpt lat="46.74541" lon="-0.1755">
        <ele>96.3</ele>
        <time>2019-02-03T20:50:24.803Z</time>
      </trkpt>
      <trkpt lat="46.7452" lon="-0.17519">
        <ele>94.9</ele>
        <time>2019-02-03T20:50:25.402Z</time>
      </trkpt>
      <trkpt lat="46.74506" lon="-0.1751">
        <ele>95.9</ele>
        <time>2019-02-03T20:50:25.709Z</time>
      </trkpt>
      <trkpt lat="46.74499" lon="-0.1751">
        <ele>96.4</ele>
        <time>2019-02-03T20:50:25.849Z</time>
      </trkpt>
      <trkpt lat="46.74486" lon="-0.17517">
        <ele>97</ele>
        <time>2019-02-03T20:50:26.127Z</time>
      </trkpt>
      <trkpt lat="46.74469" lon="-0.17525">
        <ele>97.8</ele>
        <time>2019-02-03T20:50:26.485Z</time>
      </trkpt>
      <trkpt lat="46.74458" lon="-0.17527">
        <ele>99.2</ele>
        <time>2019-02-03T20:50:26.716Z</time>
      </trkpt>
      <trkpt lat="46.74456" lon="-0.17527">
        <ele>99.4</ele>
        <time>2019-02-03T20:50:26.743Z</time>
      </trkpt>
      <trkpt lat="46.74456" lon="-0.17527">
        <ele>99.4</ele>
        <time>2019-02-03T20:50:26.747Z</time>
      </trkpt>
      <trkpt lat="46.74447" lon="-0.17525">
        <ele>100.9</ele>
        <time>2019-02-03T20:50:26.929Z</time>
      </trkpt>
      <trkpt lat="46.74438" lon="-0.17518">
        <ele>102.7</ele>
        <time>2019-02-03T20:50:27.133Z</time>
      </trkpt>
      <trkpt lat="46.74428" lon="-0.17505">
        <ele>104.8</ele>
        <time>2019-02-03T20:50:27.401Z</time>
      </trkpt>
      <trkpt lat="46.74377" lon="-0.17416">
        <ele>113.4</ele>
        <time>2019-02-03T20:50:28.994Z</time>
      </trkpt>
      <trkpt lat="46.7437" lon="-0.17407">
        <ele>113.9</ele>
        <time>2019-02-03T20:50:29.181Z</time>
      </trkpt>
      <trkpt lat="46.74364" lon="-0.17404">
        <ele>114.3</ele>
        <time>2019-02-03T20:50:29.308Z</time>
      </trkpt>
      <trkpt lat="46.74333" lon="-0.17397">
        <ele>116.3</ele>
        <time>2019-02-03T20:50:29.937Z</time>
      </trkpt>
      <trkpt lat="46.74314" lon="-0.17401">
        <ele>117.1</ele>
        <time>2019-02-03T20:50:30.322Z</time>
      </trkpt>
      <trkpt lat="46.74278" lon="-0.17415">
        <ele>118</ele>
        <time>2019-02-03T20:50:31.069Z</time>
      </trkpt>
      <trkpt lat="46.74225" lon="-0.17426">
        <ele>120.8</ele>
        <time>2019-02-03T20:50:32.142Z</time>
      </trkpt>
      <trkpt lat="46.74194" lon="-0.1743">
        <ele>123</ele>
        <time>2019-02-03T20:50:32.766Z</time>
      </trkpt>
      <trkpt lat="46.74142" lon="-0.17429">
        <ele>125.9</ele>
        <time>2019-02-03T20:50:33.808Z</time>
      </trkpt>
      <trkpt lat="46.74117" lon="-0.17429">
        <ele>126.8</ele>
        <time>2019-02-03T20:50:34.309Z</time>
      </trkpt>
      <trkpt lat="46.74102" lon="-0.17426">
        <ele>127.2</ele>
        <time>2019-02-03T20:50:34.612Z</time>
      </trkpt>
      <trkpt lat="46.74082" lon="-0.17417">
        <ele>127.9</ele>
        <time>2019-02-03T20:50:35.031Z</time>
      </trkpt>
      <trkpt lat="46.74055" lon="-0.17401">
        <ele>127.6</ele>
        <time>2019-02-03T20:50:35.615Z</time>
      </trkpt>
      <trkpt lat="46.73995" lon="-0.17356">
        <ele>128</ele>
        <time>2019-02-03T20:50:36.967Z</time>
      </trkpt>
      <trkpt lat="46.73962" lon="-0.1733">
        <ele>127.6</ele>
        <time>2019-02-03T20:50:37.719Z</time>
      </trkpt>
      <trkpt lat="46.73942" lon="-0.17311">
        <ele>126.9</ele>
        <time>2019-02-03T20:50:38.197Z</time>
      </trkpt>
      <trkpt lat="46.73925" lon="-0.17298">
        <ele>126.2</ele>
        <time>2019-02-03T20:50:38.582Z</time>
      </trkpt>
      <trkpt lat="46.73882" lon="-0.17269">
        <ele>126</ele>
        <time>2019-02-03T20:50:39.531Z</time>
      </trkpt>
      <trkpt lat="46.73854" lon="-0.17254">
        <ele>126</ele>
        <time>2019-02-03T20:50:40.129Z</time>
      </trkpt>
      <trkpt lat="46.73722" lon="-0.17198">
        <ele>125.1</ele>
        <time>2019-02-03T20:50:42.884Z</time>
      </trkpt>
      <trkpt lat="46.7367" lon="-0.17177">
        <ele>125.4</ele>
        <time>2019-02-03T20:50:43.965Z</time>
      </trkpt>
      <trkpt lat="46.73639" lon="-0.17167">
        <ele>125</ele>
        <time>2019-02-03T20:50:44.601Z</time>
      </trkpt>
      <trkpt lat="46.73528" lon="-0.1714">
        <ele>124</ele>
        <time>2019-02-03T20:50:46.856Z</time>
      </trkpt>
      <trkpt lat="46.73482" lon="-0.17123">
        <ele>123.4</ele>
        <time>2019-02-03T20:50:47.807Z</time>
      </trkpt>
      <trkpt lat="46.73424" lon="-0.17092">
        <ele>123</ele>
        <time>2019-02-03T20:50:49.045Z</time>
      </trkpt>
      <trkpt lat="46.7338" lon="-0.17061">
        <ele>123.5</ele>
        <time>2019-02-03T20:50:50.024Z</time>
      </trkpt>
      <trkpt lat="46.73359" lon="-0.1705">
        <ele>123.9</ele>
        <time>2019-02-03T20:50:50.471Z</time>
      </trkpt>
      <trkpt lat="46.73335" lon="-0.17041">
        <ele>124.4</ele>
        <time>2019-02-03T20:50:50.968Z</time>
      </trkpt>
      <trkpt lat="46.73291" lon="-0.1703">
        <ele>124.1</ele>
        <time>2019-02-03T20:50:51.863Z</time>
      </trkpt>
      <trkpt lat="46.73253" lon="-0.17028">
        <ele>124</ele>
        <time>2019-02-03T20:50:52.625Z</time>
      </trkpt>
      <trkpt lat="46.73232" lon="-0.17032">
        <ele>124.7</ele>
        <time>2019-02-03T20:50:53.049Z</time>
      </trkpt>
      <trkpt lat="46.73168" lon="-0.17044">
        <ele>125</ele>
        <time>2019-02-03T20:50:54.342Z</time>
      </trkpt>
      <trkpt lat="46.73146" lon="-0.16969">
        <ele>124.7</ele>
        <time>2019-02-03T20:50:55.463Z</time>
      </trkpt>
      <trkpt lat="46.73128" lon="-0.16903">
        <ele>124.7</ele>
        <time>2019-02-03T20:50:56.439Z</time>
      </trkpt>
      <trkpt lat="46.73106" lon="-0.16816">
        <ele>125.2</ele>
        <time>2019-02-03T20:50:57.713Z</time>
      </trkpt>
      <trkpt lat="46.73088" lon="-0.1677">
        <ele>126</ele>
        <time>2019-02-03T20:50:58.441Z</time>
      </trkpt>
      <trkpt lat="46.73074" lon="-0.16739">
        <ele>126.3</ele>
        <time>2019-02-03T20:50:58.951Z</time>
      </trkpt>
      <trkpt lat="46.7305" lon="-0.1668">
        <ele>125.1</ele>
        <time>2019-02-03T20:50:59.893Z</time>
      </trkpt>
      <trkpt lat="46.73027" lon="-0.16606">
        <ele>122.8</ele>
        <time>2019-02-03T20:51:01.009Z</time>
      </trkpt>
      <trkpt lat="46.73021" lon="-0.16594">
        <ele>122.6</ele>
        <time>2019-02-03T20:51:01.213Z</time>
      </trkpt>
      <trkpt lat="46.73016" lon="-0.16588">
        <ele>122.6</ele>
        <time>2019-02-03T20:51:01.343Z</time>
      </trkpt>
      <trkpt lat="46.73" lon="-0.16581">
        <ele>122.9</ele>
        <time>2019-02-03T20:51:01.678Z</time>
      </trkpt>
      <trkpt lat="46.72996" lon="-0.16577">
        <ele>122.9</ele>
        <time>2019-02-03T20:51:01.775Z</time>
      </trkpt>
      <trkpt lat="46.72983" lon="-0.16565">
        <ele>123</ele>
        <time>2019-02-03T20:51:02.083Z</time>
      </trkpt>
      <trkpt lat="46.72957" lon="-0.16548">
        <ele>123.7</ele>
        <time>2019-02-03T20:51:02.654Z</time>
      </trkpt>
      <trkpt lat="46.7292" lon="-0.16529">
        <ele>123.1</ele>
        <time>2019-02-03T20:51:03.440Z</time>
      </trkpt>
      <trkpt lat="46.72895" lon="-0.16519">
        <ele>123.2</ele>
        <time>2019-02-03T20:51:03.959Z</time>
      </trkpt>
      <trkpt lat="46.72881" lon="-0.16518">
        <ele>123.2</ele>
        <time>2019-02-03T20:51:04.240Z</time>
      </trkpt>
      <trkpt lat="46.72839" lon="-0.16526">
        <ele>123.7</ele>
        <time>2019-02-03T20:51:05.088Z</time>
      </trkpt>
    </trkseg>
  </trk>
</gpx>